Time,TemperatureF,DewpointF,PressureIn,WindDirection,WindDirectionDegrees,WindSpeedMPH,WindSpeedGustMPH,Humidity,HourlyPrecipIn,Conditions,Clouds,dailyrainin,SoftwareType,DateUTC
2013-03-20 00:00:00,34.0,32.5,29.73,WNW,289,3.0,4.0,94,0.00,,,0.52,Wunderground v.1.15,2013-03-20 04:00:00,
2013-03-20 00:05:00,34.0,32.5,29.72,NW,310,3.0,4.0,94,0.00,,,0.00,Wunderground v.1.15,2013-03-20 04:05:00,
2013-03-20 00:10:00,34.0,32.5,29.72,WNW,282,2.0,5.0,94,0.00,,,0.00,Wunderground v.1.15,2013-03-20 04:10:00,
2013-03-20 00:15:00,34.1,32.6,29.72,West,279,2.0,5.0,94,0.00,,,0.00,Wunderground v.1.15,2013-03-20 04:15:00,
2013-03-20 08:05:00,32.9,23.5,29.82,NW,305,11.0,11.0,68,0.00,,,0.00,Wunderground v.1.15,2013-03-20 12:05:00,
2013-03-20 08:10:00,33.0,23.2,29.83,WNW,282,10.0,15.0,67,0.00,,,0.00,Wunderground v.1.15,2013-03-20 12:10:00,
2013-03-20 08:15:00,33.2,23.4,29.82,West,267,9.0,15.0,67,0.00,,,0.00,Wunderground v.1.15,2013-03-20 12:15:00,
2013-03-20 08:20:00,33.3,23.5,29.83,WNW,283,9.0,10.0,67,0.00,,,0.00,Wunderground v.1.15,2013-03-20 12:20:00,
2013-03-20 08:25:00,33.4,23.3,29.82,WSW,255,10.0,11.0,66,0.00,,,0.00,Wunderground v.1.15,2013-03-20 12:25:00,
2013-03-20 08:30:00,33.6,23.4,29.82,West,269,10.0,14.0,66,0.00,,,0.00,Wunderground v.1.15,2013-03-20 12:30:00,
2013-03-20 08:35:00,33.7,23.5,29.82,WNW,297,8.0,16.0,66,0.00,,,0.00,Wunderground v.1.15,2013-03-20 12:35:00,
2013-03-20 08:40:00,33.9,23.7,29.82,West,265,9.0,9.0,66,0.00,,,0.00,Wunderground v.1.15,2013-03-20 12:40:00,
2013-03-20 08:50:00,34.1,23.9,29.82,WSW,256,10.0,10.0,66,0.00,,,0.00,Wunderground v.1.15,2013-03-20 12:50:00,
2013-03-20 08:55:00,34.3,23.7,29.82,WSW,246,10.0,10.0,65,0.00,,,0.00,Wunderground v.1.15,2013-03-20 12:55:00,
2013-03-20 09:00:00,34.4,24.2,29.82,WSW,242,9.0,9.0,66,0.00,,,0.00,Wunderground v.1.15,2013-03-20 13:00:00,
2013-03-20 09:05:00,34.4,23.5,29.82,West,262,10.0,17.0,64,0.00,,,0.00,Wunderground v.1.15,2013-03-20 13:05:00,
2013-03-20 09:10:00,34.5,23.9,29.82,WSW,248,11.0,11.0,65,0.00,,,0.00,Wunderground v.1.15,2013-03-20 13:10:00,
2013-03-20 09:15:00,34.7,23.8,29.82,SW,233,10.0,11.0,64,0.00,,,0.00,Wunderground v.1.15,2013-03-20 13:15:00,
2013-03-20 09:20:00,34.9,24.3,29.82,WNW,285,9.0,9.0,65,0.00,,,0.00,Wunderground v.1.15,2013-03-20 13:20:00,
2013-03-20 09:25:00,35.1,23.8,29.82,WSW,256,9.0,9.0,63,0.00,,,0.00,Wunderground v.1.15,2013-03-20 13:25:00,
2013-03-20 09:30:00,35.2,24.2,29.82,West,263,9.0,15.0,64,0.00,,,0.00,Wunderground v.1.15,2013-03-20 13:30:00,
2013-03-20 09:35:00,35.2,23.5,29.82,WSW,252,10.0,15.0,62,0.00,,,0.00,Wunderground v.1.15,2013-03-20 13:35:00,
2013-03-20 09:40:00,35.4,23.3,29.81,West,267,10.0,10.0,61,0.00,,,0.00,Wunderground v.1.15,2013-03-20 13:40:00,
2013-03-20 09:45:00,35.4,23.3,29.81,West,269,10.0,14.0,61,0.00,,,0.00,Wunderground v.1.15,2013-03-20 13:45:00,
2013-03-20 09:50:00,35.7,23.2,29.81,WSW,256,11.0,11.0,60,0.00,,,0.00,Wunderground v.1.15,2013-03-20 13:50:00,
2013-03-20 09:55:00,35.9,23.0,29.81,WSW,250,10.0,11.0,59,0.00,,,0.00,Wunderground v.1.15,2013-03-20 13:55:00,
2013-03-20 10:00:00,36.3,23.7,29.81,WNW,290,9.0,11.0,60,0.00,,,0.00,Wunderground v.1.15,2013-03-20 14:00:00,
2013-03-20 10:05:00,36.1,22.7,29.81,West,264,10.0,12.0,58,0.00,,,0.00,Wunderground v.1.15,2013-03-20 14:05:00,
2013-03-20 10:10:00,36.1,22.3,29.81,SW,231,12.0,12.0,57,0.00,,,0.00,Wunderground v.1.15,2013-03-20 14:10:00,
2013-03-20 10:15:00,36.1,21.9,29.81,West,276,13.0,15.0,56,0.00,,,0.00,Wunderground v.1.15,2013-03-20 14:15:00,
2013-03-20 10:20:00,36.1,21.5,29.81,West,276,14.0,22.0,55,0.00,,,0.00,Wunderground v.1.15,2013-03-20 14:20:00,
2013-03-20 10:25:00,36.3,22.1,29.81,SSW,203,15.0,22.0,56,0.00,,,0.00,Wunderground v.1.15,2013-03-20 14:25:00,
2013-03-20 10:30:00,36.9,23.1,29.81,WNW,283,13.0,20.0,57,0.00,,,0.00,Wunderground v.1.15,2013-03-20 14:30:00,
2013-03-20 10:35:00,37.1,22.0,29.81,SW,236,11.0,20.0,54,0.00,,,0.00,Wunderground v.1.15,2013-03-20 14:35:00,
2013-03-20 10:45:00,36.9,22.2,29.81,West,278,13.0,13.0,55,0.00,,,0.00,Wunderground v.1.15,2013-03-20 14:45:00,
2013-03-20 10:50:00,37.2,22.9,29.81,WSW,245,9.0,9.0,56,0.00,,,0.00,Wunderground v.1.15,2013-03-20 14:50:00,
2013-03-20 10:55:00,37.2,21.6,29.81,West,277,8.0,9.0,53,0.00,,,0.00,Wunderground v.1.15,2013-03-20 14:55:00,
2013-03-20 11:00:00,37.0,21.9,29.81,WSW,257,9.0,9.0,54,0.00,,,0.00,Wunderground v.1.15,2013-03-20 15:00:00,
2013-03-20 11:05:00,37.3,21.3,29.81,SW,219,9.0,9.0,52,0.00,,,0.00,Wunderground v.1.15,2013-03-20 15:05:00,
2013-03-20 11:10:00,37.6,21.5,29.81,WSW,240,11.0,15.0,52,0.00,,,0.00,Wunderground v.1.15,2013-03-20 15:10:00,
2013-03-20 11:15:00,37.9,21.8,29.81,WSW,256,12.0,15.0,52,0.00,,,0.00,Wunderground v.1.15,2013-03-20 15:15:00,
2013-03-20 11:20:00,38.1,22.0,29.81,West,269,13.0,13.0,52,0.00,,,0.00,Wunderground v.1.15,2013-03-20 15:20:00,
2013-03-20 11:25:00,38.0,22.4,29.81,West,276,13.0,13.0,53,0.00,,,0.00,Wunderground v.1.15,2013-03-20 15:25:00,
2013-03-20 11:30:00,37.6,21.5,29.81,West,274,14.0,14.0,52,0.00,,,0.00,Wunderground v.1.15,2013-03-20 15:30:00,
2013-03-20 11:35:00,37.7,22.1,29.82,WSW,253,12.0,19.0,53,0.00,,,0.00,Wunderground v.1.15,2013-03-20 15:35:00,
2013-03-20 11:45:00,38.1,22.9,29.81,SSW,201,11.0,13.0,54,0.00,,,0.00,Wunderground v.1.15,2013-03-20 15:45:00,
2013-03-20 11:50:00,38.1,22.0,29.82,West,273,12.0,12.0,52,0.00,,,0.00,Wunderground v.1.15,2013-03-20 15:50:00,
2013-03-20 11:55:00,38.5,22.4,29.81,SW,236,12.0,12.0,52,0.00,,,0.00,Wunderground v.1.15,2013-03-20 15:55:00,
2013-03-20 12:05:00,38.0,21.9,29.81,West,277,11.0,17.0,52,0.00,,,0.00,Wunderground v.1.15,2013-03-20 16:05:00,
2013-03-20 12:10:00,37.9,22.7,29.81,West,267,11.0,11.0,54,0.00,,,0.00,Wunderground v.1.15,2013-03-20 16:10:00,
2013-03-20 12:15:00,38.6,22.9,29.81,WSW,240,10.0,13.0,53,0.00,,,0.00,Wunderground v.1.15,2013-03-20 16:15:00,
2013-03-20 12:20:00,39.0,21.9,29.81,West,270,11.0,11.0,50,0.00,,,0.00,Wunderground v.1.15,2013-03-20 16:20:00,
2013-03-20 12:25:00,39.1,22.0,29.81,WSW,240,12.0,13.0,50,0.00,,,0.00,Wunderground v.1.15,2013-03-20 16:25:00,
2013-03-20 12:30:00,38.9,22.3,29.81,West,259,13.0,13.0,51,0.00,,,0.00,Wunderground v.1.15,2013-03-20 16:30:00,
2013-03-20 12:35:00,39.2,22.1,29.81,West,278,14.0,14.0,50,0.00,,,0.00,Wunderground v.1.15,2013-03-20 16:35:00,
2013-03-20 12:40:00,39.4,20.8,29.80,WNW,293,12.0,12.0,47,0.00,,,0.00,Wunderground v.1.15,2013-03-20 16:40:00,
2013-03-20 12:45:00,39.7,23.0,29.80,WNW,291,11.0,12.0,51,0.00,,,0.00,Wunderground v.1.15,2013-03-20 16:45:00,
2013-03-20 12:50:00,39.2,22.1,29.80,West,276,12.0,12.0,50,0.00,,,0.00,Wunderground v.1.15,2013-03-20 16:50:00,
2013-03-20 12:55:00,39.6,22.0,29.80,WNW,286,12.0,12.0,49,0.00,,,0.00,Wunderground v.1.15,2013-03-20 16:55:00,
2013-03-20 13:00:00,40.1,21.5,29.80,NW,309,11.0,13.0,47,0.00,,,0.00,Wunderground v.1.15,2013-03-20 17:00:00,
2013-03-20 13:05:00,40.0,21.4,29.80,NNW,333,10.0,13.0,47,0.00,,,0.00,Wunderground v.1.15,2013-03-20 17:05:00,
2013-03-20 13:10:00,40.4,22.2,29.79,WNW,303,10.0,10.0,48,0.00,,,0.00,Wunderground v.1.15,2013-03-20 17:10:00,
2013-03-20 13:15:00,40.5,21.8,29.79,West,277,10.0,12.0,47,0.00,,,0.00,Wunderground v.1.15,2013-03-20 17:15:00,
2013-03-20 13:25:00,40.6,21.4,29.79,WSW,240,11.0,12.0,46,0.00,,,0.00,Wunderground v.1.15,2013-03-20 17:25:00,
2013-03-20 13:30:00,40.7,21.5,29.79,WNW,288,11.0,11.0,46,0.00,,,0.00,Wunderground v.1.15,2013-03-20 17:30:00,
2013-03-20 13:35:00,41.0,21.8,29.79,WNW,283,9.0,11.0,46,0.00,,,0.00,Wunderground v.1.15,2013-03-20 17:35:00,
2013-03-20 13:40:00,40.9,21.2,29.79,WSW,256,10.0,12.0,45,0.00,,,0.00,Wunderground v.1.15,2013-03-20 17:40:00,
2013-03-20 13:45:00,40.8,22.1,29.78,WNW,288,12.0,12.0,47,0.00,,,0.00,Wunderground v.1.15,2013-03-20 17:45:00,
2013-03-20 13:50:00,40.9,21.7,29.78,West,266,12.0,12.0,46,0.00,,,0.00,Wunderground v.1.15,2013-03-20 17:50:00,
2013-03-20 13:55:00,40.9,22.2,29.78,WSW,246,12.0,12.0,47,0.00,,,0.00,Wunderground v.1.15,2013-03-20 17:55:00,
2013-03-20 14:00:00,41.3,22.1,29.78,SSW,203,11.0,11.0,46,0.00,,,0.00,Wunderground v.1.15,2013-03-20 18:00:00,
2013-03-20 14:05:00,41.3,21.0,29.78,WSW,249,11.0,12.0,44,0.00,,,0.00,Wunderground v.1.15,2013-03-20 18:05:00,
2013-03-20 14:10:00,40.9,20.6,29.78,West,263,13.0,13.0,44,0.00,,,0.00,Wunderground v.1.15,2013-03-20 18:10:00,
2013-03-20 14:15:00,41.0,21.8,29.78,SSW,204,13.0,13.0,46,0.00,,,0.00,Wunderground v.1.15,2013-03-20 18:15:00,
2013-03-20 14:20:00,41.4,21.6,29.78,West,259,11.0,11.0,45,0.00,,,0.00,Wunderground v.1.15,2013-03-20 18:20:00,
2013-03-20 14:30:00,41.3,25.9,29.78,West,264,11.0,11.0,54,0.00,,,0.00,Wunderground v.1.15,2013-03-20 18:30:00,
2013-03-20 14:35:00,40.7,25.8,29.78,SW,224,12.0,12.0,55,0.00,,,0.00,Wunderground v.1.15,2013-03-20 18:35:00,
2013-03-20 14:45:00,40.3,26.3,29.77,WSW,240,14.0,20.0,57,0.00,,,0.00,Wunderground v.1.15,2013-03-20 18:45:00,
2013-03-20 14:50:00,40.1,24.8,29.77,SW,228,15.0,16.0,54,0.00,,,0.00,Wunderground v.1.15,2013-03-20 18:50:00,
2013-03-20 14:55:00,40.4,26.4,29.77,SSW,212,15.0,19.0,57,0.00,,,0.00,Wunderground v.1.15,2013-03-20 18:55:00,
2013-03-20 15:00:00,40.0,26.0,29.77,WSW,256,14.0,14.0,57,0.00,,,0.00,Wunderground v.1.15,2013-03-20 19:00:00,
2013-03-20 15:05:00,40.0,26.0,29.77,SW,214,15.0,15.0,57,0.00,,,0.00,Wunderground v.1.15,2013-03-20 19:05:00,
2013-03-20 15:10:00,40.0,25.6,29.77,WSW,252,15.0,19.0,56,0.00,,,0.00,Wunderground v.1.15,2013-03-20 19:10:00,
2013-03-20 15:15:00,40.2,26.2,29.77,West,264,15.0,19.0,57,0.00,,,0.00,Wunderground v.1.15,2013-03-20 19:15:00,
2013-03-20 15:20:00,39.8,25.4,29.77,WSW,243,16.0,20.0,56,0.00,,,0.00,Wunderground v.1.15,2013-03-20 19:20:00,
2013-03-20 15:25:00,40.0,26.0,29.77,SW,219,18.0,20.0,57,0.00,,,0.00,Wunderground v.1.15,2013-03-20 19:25:00,
2013-03-20 15:30:00,40.1,25.2,29.77,SW,225,16.0,21.0,55,0.00,,,0.00,Wunderground v.1.15,2013-03-20 19:30:00,
2013-03-20 15:35:00,40.2,26.6,29.77,WSW,257,15.0,21.0,58,0.00,,,0.00,Wunderground v.1.15,2013-03-20 19:35:00,
2013-03-20 15:45:00,39.8,26.6,29.77,SW,221,16.0,16.0,59,0.00,,,0.00,Wunderground v.1.15,2013-03-20 19:45:00,
2013-03-20 15:50:00,40.0,26.8,29.77,SW,231,15.0,15.0,59,0.00,,,0.00,Wunderground v.1.15,2013-03-20 19:50:00,
2013-03-20 15:55:00,39.8,26.6,29.77,WSW,256,15.0,23.0,59,0.00,,,0.00,Wunderground v.1.15,2013-03-20 19:55:00,
2013-03-20 16:00:00,39.7,26.9,29.77,SW,219,16.0,16.0,60,0.00,,,0.00,Wunderground v.1.15,2013-03-20 20:00:00,
2013-03-20 16:05:00,40.0,27.2,29.77,SW,226,15.0,16.0,60,0.00,,,0.00,Wunderground v.1.15,2013-03-20 20:05:00,
2013-03-20 16:10:00,40.0,26.0,29.77,WSW,255,14.0,14.0,57,0.00,,,0.00,Wunderground v.1.15,2013-03-20 20:10:00,
2013-03-20 16:15:00,39.7,26.1,29.77,WSW,249,16.0,19.0,58,0.00,,,0.00,Wunderground v.1.15,2013-03-20 20:15:00,
2013-03-20 16:20:00,39.7,25.7,29.77,SW,214,17.0,17.0,57,0.00,,,0.00,Wunderground v.1.15,2013-03-20 20:20:00,
2013-03-20 16:25:00,40.0,25.6,29.77,SW,222,16.0,17.0,56,0.00,,,0.00,Wunderground v.1.15,2013-03-20 20:25:00,
2013-03-20 16:30:00,39.9,25.5,29.77,WSW,243,15.0,15.0,56,0.00,,,0.00,Wunderground v.1.15,2013-03-20 20:30:00,
2013-03-20 16:35:00,40.0,26.0,29.78,WSW,255,16.0,16.0,57,0.00,,,0.00,Wunderground v.1.15,2013-03-20 20:35:00,
2013-03-20 16:40:00,40.5,26.4,29.78,WSW,243,14.0,14.0,57,0.00,,,0.00,Wunderground v.1.15,2013-03-20 20:40:00,
2013-03-20 16:45:00,40.4,25.5,29.78,WSW,243,12.0,18.0,55,0.00,,,0.00,Wunderground v.1.15,2013-03-20 20:45:00,
2013-03-20 16:50:00,40.6,26.1,29.78,WSW,256,14.0,15.0,56,0.00,,,0.00,Wunderground v.1.15,2013-03-20 20:50:00,
2013-03-20 16:55:00,40.8,25.9,29.78,SW,226,12.0,15.0,55,0.00,,,0.00,Wunderground v.1.15,2013-03-20 20:55:00,
2013-03-20 17:00:00,40.9,25.1,29.78,WSW,240,12.0,14.0,53,0.00,,,0.00,Wunderground v.1.15,2013-03-20 21:00:00,
2013-03-20 17:05:00,40.7,24.9,29.78,SW,236,12.0,14.0,53,0.00,,,0.00,Wunderground v.1.15,2013-03-20 21:05:00,
2013-03-20 17:10:00,40.7,24.4,29.78,SW,232,14.0,14.0,52,0.00,,,0.00,Wunderground v.1.15,2013-03-20 21:10:00,
2013-03-20 17:15:00,41.0,24.7,29.79,WSW,252,14.0,14.0,52,0.00,,,0.00,Wunderground v.1.15,2013-03-20 21:15:00,
2013-03-20 17:25:00,41.1,24.3,29.79,WSW,250,13.0,17.0,51,0.00,,,0.00,Wunderground v.1.15,2013-03-20 21:25:00,
2013-03-20 17:30:00,41.2,24.4,29.79,West,269,12.0,13.0,51,0.00,,,0.00,Wunderground v.1.15,2013-03-20 21:30:00,
2013-03-20 17:35:00,41.3,23.6,29.78,West,266,11.0,16.0,49,0.00,,,0.00,Wunderground v.1.15,2013-03-20 21:35:00,
2013-03-20 17:40:00,41.4,23.6,29.79,West,262,11.0,11.0,49,0.00,,,0.00,Wunderground v.1.15,2013-03-20 21:40:00,
2013-03-20 17:45:00,41.5,23.2,29.78,SW,228,10.0,11.0,48,0.00,,,0.00,Wunderground v.1.15,2013-03-20 21:45:00,
2013-03-20 17:50:00,41.7,22.9,29.78,West,280,9.0,11.0,47,0.00,,,0.00,Wunderground v.1.15,2013-03-20 21:50:00,
2013-03-20 17:55:00,41.8,22.5,29.78,WSW,240,9.0,11.0,46,0.00,,,0.00,Wunderground v.1.15,2013-03-20 21:55:00,
2013-03-20 18:00:00,41.7,21.9,29.79,West,259,9.0,11.0,45,0.00,,,0.00,Wunderground v.1.15,2013-03-20 22:00:00,
2013-03-20 18:05:00,41.7,21.9,29.79,WSW,243,9.0,11.0,45,0.00,,,0.00,Wunderground v.1.15,2013-03-20 22:05:00,
2013-03-20 18:10:00,41.9,21.5,29.78,WSW,243,8.0,10.0,44,0.00,,,0.00,Wunderground v.1.15,2013-03-20 22:10:00,
2013-03-20 18:15:00,41.8,21.5,29.78,West,276,7.0,10.0,44,0.00,,,0.00,Wunderground v.1.15,2013-03-20 22:15:00,
2013-03-20 18:20:00,41.8,22.0,29.79,WSW,257,7.0,7.0,45,0.00,,,0.00,Wunderground v.1.15,2013-03-20 22:20:00,
2013-03-20 18:25:00,41.8,22.0,29.79,West,267,6.0,7.0,45,0.00,,,0.00,Wunderground v.1.15,2013-03-20 22:25:00,
2013-03-20 18:30:00,41.6,21.3,29.79,West,281,5.0,6.0,44,0.00,,,0.00,Wunderground v.1.15,2013-03-20 22:30:00,
2013-03-20 18:35:00,41.3,21.5,29.79,West,262,6.0,8.0,45,0.00,,,0.00,Wunderground v.1.15,2013-03-20 22:35:00,
2013-03-20 18:40:00,41.2,22.0,29.80,WSW,238,6.0,6.0,46,0.00,,,0.00,Wunderground v.1.15,2013-03-20 22:40:00,
2013-03-20 18:45:00,41.0,23.3,29.80,WNW,283,5.0,6.0,49,0.00,,,0.00,Wunderground v.1.15,2013-03-20 22:45:00,
2013-03-20 18:50:00,40.7,23.5,29.80,WSW,238,5.0,8.0,50,0.00,,,0.00,Wunderground v.1.15,2013-03-20 22:50:00,
2013-03-20 18:55:00,40.4,24.6,29.80,West,260,4.0,8.0,53,0.00,,,0.00,Wunderground v.1.15,2013-03-20 22:55:00,
2013-03-20 19:00:00,40.2,24.9,29.80,WSW,238,3.0,3.0,54,0.00,,,0.00,Wunderground v.1.15,2013-03-20 23:00:00,
2013-03-20 19:05:00,40.0,25.1,29.80,SW,236,2.0,3.0,55,0.00,,,0.00,Wunderground v.1.15,2013-03-20 23:05:00,
2013-03-20 19:10:00,39.7,26.1,29.80,SW,236,2.0,4.0,58,0.00,,,0.00,Wunderground v.1.15,2013-03-20 23:10:00,
2013-03-20 19:15:00,39.4,27.1,29.80,WSW,243,2.0,5.0,61,0.00,,,0.00,Wunderground v.1.15,2013-03-20 23:15:00,
2013-03-20 19:20:00,39.4,26.2,29.80,South,188,3.0,4.0,59,0.00,,,0.00,Wunderground v.1.15,2013-03-20 23:20:00,
2013-03-20 19:25:00,39.5,27.5,29.80,West,267,4.0,4.0,62,0.00,,,0.00,Wunderground v.1.15,2013-03-20 23:25:00,
2013-03-20 19:30:00,39.3,28.1,29.80,West,276,3.0,3.0,64,0.00,,,0.00,Wunderground v.1.15,2013-03-20 23:30:00,
2013-03-20 19:40:00,39.1,27.9,29.81,WSW,240,2.0,2.0,64,0.00,,,0.00,Wunderground v.1.15,2013-03-20 23:40:00,
2013-03-20 19:45:00,38.9,27.8,29.80,West,277,1.0,2.0,64,0.00,,,0.00,Wunderground v.1.15,2013-03-20 23:45:00,
2013-03-20 19:50:00,38.9,27.0,29.81,WSW,253,1.0,1.0,62,0.00,,,0.00,Wunderground v.1.15,2013-03-20 23:50:00,
2013-03-20 19:55:00,38.8,26.9,29.81,SW,233,1.0,1.0,62,0.00,,,0.00,Wunderground v.1.15,2013-03-20 23:55:00,
2013-03-20 20:00:00,38.5,27.0,29.81,SW,231,1.0,1.0,63,0.00,,,0.00,Wunderground v.1.15,2013-03-21 00:00:00,
2013-03-20 20:05:00,38.5,27.4,29.81,SW,226,1.0,1.0,64,0.00,,,0.00,Wunderground v.1.15,2013-03-21 00:05:00,
2013-03-20 20:10:00,38.5,29.2,29.81,SW,222,2.0,5.0,69,0.00,,,0.00,Wunderground v.1.15,2013-03-21 00:10:00,
2013-03-20 20:15:00,38.4,31.2,29.81,West,274,2.0,5.0,75,0.00,,,0.00,Wunderground v.1.15,2013-03-21 00:15:00,
2013-03-20 20:25:00,38.3,32.0,29.81,West,260,3.0,3.0,78,0.00,,,0.00,Wunderground v.1.15,2013-03-21 00:25:00,
2013-03-20 20:30:00,38.2,32.3,29.81,WSW,243,2.0,2.0,79,0.00,,,0.00,Wunderground v.1.15,2013-03-21 00:30:00,
2013-03-20 20:35:00,38.1,32.5,29.81,WSW,240,2.0,3.0,80,0.00,,,0.00,Wunderground v.1.15,2013-03-21 00:35:00,
2013-03-20 20:40:00,38.1,32.8,29.81,West,280,2.0,2.0,81,0.00,,,0.00,Wunderground v.1.15,2013-03-21 00:40:00,
2013-03-20 20:45:00,38.0,32.7,29.81,WSW,250,1.0,2.0,81,0.00,,,0.00,Wunderground v.1.15,2013-03-21 00:45:00,
2013-03-20 20:55:00,37.7,32.7,29.81,SSW,210,1.0,2.0,82,0.00,,,0.00,Wunderground v.1.15,2013-03-21 00:55:00,
2013-03-20 21:00:00,37.7,32.7,29.82,WSW,258,2.0,4.0,82,0.00,,,0.00,Wunderground v.1.15,2013-03-21 01:00:00,
2013-03-20 21:05:00,37.7,32.7,29.82,SW,235,3.0,4.0,82,0.00,,,0.00,Wunderground v.1.15,2013-03-21 01:05:00,
2013-03-20 21:10:00,37.8,32.5,29.82,WSW,251,3.0,3.0,81,0.00,,,0.00,Wunderground v.1.15,2013-03-21 01:10:00,
2013-03-20 21:15:00,37.9,32.3,29.82,SW,236,3.0,5.0,80,0.00,,,0.00,Wunderground v.1.15,2013-03-21 01:15:00,
2013-03-20 21:25:00,38.0,31.1,29.82,SW,217,4.0,4.0,76,0.00,,,0.00,Wunderground v.1.15,2013-03-21 01:25:00,
2013-03-20 21:35:00,38.3,30.7,29.82,SW,226,4.0,6.0,74,0.00,,,0.00,Wunderground v.1.15,2013-03-21 01:35:00,
2013-03-20 21:40:00,38.3,30.7,29.82,SW,232,4.0,4.0,74,0.00,,,0.00,Wunderground v.1.15,2013-03-21 01:40:00,
2013-03-20 21:45:00,38.3,30.7,29.82,SW,214,4.0,4.0,74,0.00,,,0.00,Wunderground v.1.15,2013-03-21 01:45:00,
2013-03-20 21:50:00,38.3,30.7,29.82,SW,219,4.0,4.0,74,0.00,,,0.00,Wunderground v.1.15,2013-03-21 01:50:00,
2013-03-20 21:55:00,38.4,30.5,29.82,SW,235,5.0,5.0,73,0.00,,,0.00,Wunderground v.1.15,2013-03-21 01:55:00,
2013-03-20 22:00:00,38.4,30.2,29.82,SW,224,4.0,4.0,72,0.00,,,0.00,Wunderground v.1.15,2013-03-21 02:00:00,
2013-03-20 22:05:00,38.3,30.1,29.82,SW,215,4.0,4.0,72,0.00,,,0.00,Wunderground v.1.15,2013-03-21 02:05:00,
2013-03-20 22:15:00,38.3,30.4,29.82,SW,226,3.0,4.0,73,0.00,,,0.00,Wunderground v.1.15,2013-03-21 02:15:00,
2013-03-20 22:20:00,38.3,30.7,29.82,WSW,240,3.0,3.0,74,0.00,,,0.00,Wunderground v.1.15,2013-03-21 02:20:00,
2013-03-20 22:25:00,38.2,31.0,29.82,SW,217,3.0,3.0,75,0.00,,,0.00,Wunderground v.1.15,2013-03-21 02:25:00,
2013-03-20 22:30:00,38.2,31.3,29.82,SW,221,3.0,3.0,76,0.00,,,0.00,Wunderground v.1.15,2013-03-21 02:30:00,
2013-03-20 22:35:00,38.1,31.5,29.82,WSW,241,3.0,4.0,77,0.00,,,0.00,Wunderground v.1.15,2013-03-21 02:35:00,
2013-03-20 22:40:00,38.0,31.7,29.82,WSW,240,3.0,3.0,78,0.00,,,0.00,Wunderground v.1.15,2013-03-21 02:40:00,
2013-03-20 22:45:00,38.0,32.1,29.82,SW,236,3.0,3.0,79,0.00,,,0.00,Wunderground v.1.15,2013-03-21 02:45:00,
2013-03-20 22:50:00,37.9,32.0,29.82,WSW,245,2.0,2.0,79,0.00,,,0.00,Wunderground v.1.15,2013-03-21 02:50:00,
2013-03-20 23:00:00,37.9,32.0,29.82,WSW,238,2.0,4.0,79,0.00,,,0.00,Wunderground v.1.15,2013-03-21 03:00:00,
2013-03-20 23:05:00,37.9,32.0,29.82,WSW,243,2.0,4.0,79,0.00,,,0.00,Wunderground v.1.15,2013-03-21 03:05:00,
2013-03-20 23:10:00,37.9,32.3,29.82,WSW,243,2.0,3.0,80,0.00,,,0.00,Wunderground v.1.15,2013-03-21 03:10:00,
2013-03-20 23:15:00,37.9,32.3,29.82,SSW,210,1.0,3.0,80,0.00,,,0.00,Wunderground v.1.15,2013-03-21 03:15:00,
2013-03-20 23:20:00,37.7,32.4,29.82,WSW,255,2.0,2.0,81,0.00,,,0.00,Wunderground v.1.15,2013-03-21 03:20:00,
2013-03-20 23:25:00,37.7,32.4,29.81,WSW,242,2.0,2.0,81,0.00,,,0.00,Wunderground v.1.15,2013-03-21 03:25:00,
2013-03-20 23:30:00,37.6,32.3,29.82,SW,224,1.0,1.0,81,0.00,,,0.00,Wunderground v.1.15,2013-03-21 03:30:00,
2013-03-20 23:35:00,37.5,32.5,29.82,SW,215,2.0,2.0,82,0.00,,,0.00,Wunderground v.1.15,2013-03-21 03:35:00,
2013-03-20 23:40:00,37.4,32.4,29.82,SSW,212,2.0,2.0,82,0.00,,,0.00,Wunderground v.1.15,2013-03-21 03:40:00,
2013-03-20 23:45:00,37.4,32.4,29.82,SSW,204,2.0,2.0,82,0.00,,,0.00,Wunderground v.1.15,2013-03-21 03:45:00,
2013-03-20 23:50:00,37.4,32.4,29.82,WSW,238,2.0,2.0,82,0.00,,,0.00,Wunderground v.1.15,2013-03-21 03:50:00,
2013-03-20 23:55:00,37.5,32.5,29.82,SW,233,1.0,2.0,82,0.00,,,0.00,Wunderground v.1.15,2013-03-21 03:55:00,